Home   Weather   Linares   Past weeks

Flag for Spain Past Weather in Linares, Spain — Yesterday and Last 2 Weeks

Now
59 °F

Clear.


Feels Like: 59 °F
Forecast: 53 / 86 °F
Wind: No wind

Location: Granada / Aeropuerto

Current Time: Sep 26, 2016 at 3:59:09 AM

Latest Report: Sep 26, 2016 at 3:30 AM


Visibility: 10 mi

Pressure: 30.12 "Hg

Humidity: 51%

Dew Point: 41 °F

Location of LinaresLocation

Past Weather in Linares — Graph

°F

Linares Temperature Yesterday

Maximum temperature yesterday: 86 °F (at 4:00 PM)
Minimum temperature yesterday: 55 °F (at 6:00 AM)
Average temperature yesterday: 70 °F

High & Low Weather Summary for the Past Weeks

 TemperatureHumidityPressure
High95 °F (Sep 11, 4:30 PM)100% (Sep 14, 4:00 AM)30.24 "Hg (Sep 14, 4:00 AM)
Low45 °F (Sep 15, 6:00 AM)17% (Sep 11, 2:30 PM)29.92 "Hg (Sep 12, 7:00 PM)
Average69 °F50%30.09 "Hg
* Reported Sep 11 2:00 AM — Sep 26 2:30 AM, Linares, Weather by CustomWeather, © 2016

Note: Actual official high and low records may vary slightly from our data, if they occured in-between our weather recording intervals... More about our weather records

Advertising

Linares Weather History for the Previous 24 Hours

Scroll right to see more
 ConditionsComfort  
Time TempWeatherWind HumidityBarometerVisibility
2:30 AM
Mon, Sep 26
61 °FRefreshingly cool.1 mph45%30.12 "HgN/A
2:00 AM63 °FMild.1 mph45%30.15 "HgN/A
1:30 AM63 °FMild.No wind49%30.15 "HgN/A
1:00 AM64 °FMild.No wind46%30.15 "HgN/A
12:30 AM64 °FMild.No wind43%30.15 "HgN/A
12:00 AM66 °FMild.No wind37%30.15 "HgN/A
11:30 PM
Sun, Sep 25
68 °FClear.1 mph40%30.15 "Hg10 mi
11:00 PM70 °FClear.No wind43%30.15 "Hg10 mi
10:30 PM72 °FClear.No wind33%30.15 "Hg10 mi
10:00 PM73 °FClear.2 mph33%30.12 "Hg10 mi
9:30 PM75 °FClear.5 mph39%30.12 "Hg10 mi
9:00 PM77 °FPassing clouds.5 mph34%30.12 "HgN/A
8:30 PM81 °FPassing clouds.6 mph30%30.09 "HgN/A
8:00 PM81 °FPassing clouds.8 mph30%30.09 "HgN/A
7:30 PM82 °FPassing clouds.8 mph28%30.09 "HgN/A
7:00 PM86 °FPassing clouds.3 mph24%30.07 "HgN/A
6:30 PM86 °FPassing clouds.2 mph24%30.07 "HgN/A
6:00 PM86 °FPassing clouds.3 mph24%30.07 "HgN/A
5:30 PM86 °FPassing clouds.2 mph24%30.09 "HgN/A
5:00 PM86 °FPassing clouds.7 mph25%30.09 "HgN/A
4:30 PM86 °FPassing clouds.5 mph25%30.09 "HgN/A
4:00 PM86 °FPassing clouds.8 mph25%30.09 "HgN/A
3:30 PM84 °FPassing clouds.5 mph29%30.09 "HgN/A
3:00 PM84 °FPassing clouds.1 mph31%30.12 "HgN/A
2:30 PM82 °FPassing clouds.3 mph32%30.12 "HgN/A
2:00 PM82 °FPassing clouds.2 mph32%30.15 "HgN/A
1:30 PM81 °FPassing clouds.No wind37%30.15 "HgN/A
1:00 PM79 °FPassing clouds.1 mph42%30.18 "HgN/A
12:30 PM77 °FPassing clouds.No wind44%30.18 "HgN/A
12:00 PM73 °FSunny.No wind53%30.18 "Hg10 mi
11:30 AM72 °FSunny.1 mph57%30.18 "Hg10 mi
11:00 AM68 °FSunny.No wind60%30.18 "Hg10 mi
10:30 AM64 °FSunny.2 mph64%30.18 "Hg10 mi
10:00 AM63 °FSunny.No wind68%30.18 "Hg10 mi
9:30 AM61 °FSunny.No wind68%30.18 "Hg10 mi
9:00 AM57 °FSunny.No wind72%30.18 "Hg10 mi
8:30 AM55 °FSunny.1 mph77%30.18 "Hg10 mi
8:00 AM55 °FClear.1 mph77%30.18 "Hg10 mi
7:30 AM55 °FClear.No wind77%30.18 "Hg10 mi
7:00 AM55 °FClear.1 mph77%30.18 "Hg10 mi
6:30 AM55 °FClear.1 mph77%30.18 "Hg10 mi
6:00 AM55 °FClear.1 mph77%30.18 "Hg10 mi
5:30 AM59 °FRefreshingly cool.1 mph59%30.18 "HgN/A
5:00 AM57 °FCool.1 mph67%30.18 "HgN/A
4:30 AM57 °FCool.No wind67%30.15 "HgN/A
4:00 AM59 °FRefreshingly cool.1 mph59%30.15 "HgN/A
3:30 AM59 °FCool.No wind63%30.15 "HgN/A
3:00 AM61 °FRefreshingly cool.1 mph59%30.15 "HgN/A
Weather by CustomWeather, © 2016

See weather overviewHow to use our weather pages